Simultaneous Nadir Overpasses (SNOs) Predictions

Prediction of SNOs between NPP and TERRA Satellite Orbit:

Table of predicted SNOs for the next 14.0 days since TLE Epoch: 9/12/2015
Index Date (NPP) Time (NPP) Lat,Lon (NPP) SZA (NPP ) Date (TERRA) Time (TERRA) Lat,Lon (TERRA) SZA (TERRA ) Distance(km) Time Diff (sec)
1 09/13/2015 09:01:08 -68.72,-136.18 115.25 09/13/2015 09:02:00 -68.74,-136.22 115.23 2.83 52
2 09/13/2015 09:51:53 68.64, 31.24 64.68 09/13/2015 09:51:27 68.63, 31.29 64.68 2.42 26
3 09/13/2015 10:42:19 -67.71,-160.27 116.23 09/13/2015 10:41:11 -67.74,-162.13 116.21 78.71 68
4 09/16/2015 00:27:35 69.71, 170.90 66.76 09/16/2015 00:28:42 69.60, 173.16 66.66 88.31 67
5 09/16/2015 01:18:00 -68.73, -20.42 114.21 09/16/2015 01:18:26 -68.71, -20.36 114.23 2.93 26
6 09/16/2015 02:08:43 68.54, 147.14 65.62 09/16/2015 02:07:54 68.55, 147.08 65.62 2.51 49
7 09/18/2015 16:44:09 68.81, -72.07 66.90 09/18/2015 16:45:21 68.78, -72.01 66.86 4.17 72
8 09/18/2015 17:34:50 -68.69, 95.42 113.22 09/18/2015 17:34:51 -68.67, 95.49 113.24 3.16 1
9 09/18/2015 18:25:32 68.45, -96.96 66.56 09/18/2015 18:24:20 68.45, -97.15 66.55 7.68 72
10 09/21/2015 09:00:59 68.72, 43.83 67.84 09/21/2015 09:01:47 68.73, 43.82 67.85 0.92 48
11 09/21/2015 09:51:40 -68.59,-148.68 112.27 09/21/2015 09:51:17 -68.62,-148.68 112.25 3.11 23
12 09/21/2015 10:42:07 67.55, 19.94 66.71 09/21/2015 10:41:00 67.61, 17.77 66.75 92.67 67
13 09/24/2015 00:27:24 -69.77, -9.17
